Time,TemperatureF,DewpointF,PressureIn,WindDirection,WindDirectionDegrees,WindSpeedMPH,WindSpeedGustMPH,Humidity,HourlyPrecipIn,Conditions,Clouds,dailyrainin,SoftwareType,DateUTC
2013-06-27 00:00:00,67.4,66.8,29.84,ESE,117,0.0,6.0,98,0.00,,,0.02,Wunderground v.1.15,2013-06-27 04:00:00,
2013-06-27 00:10:00,67.2,66.6,29.84,ESE,117,0.0,6.0,98,0.00,,,0.00,Wunderground v.1.15,2013-06-27 04:10:00,
2013-06-27 00:20:00,67.1,66.5,29.84,ESE,117,0.0,6.0,98,0.00,,,0.00,Wunderground v.1.15,2013-06-27 04:20:00,
2013-06-27 00:30:00,67.1,66.5,29.84,ESE,117,0.0,6.0,98,0.00,,,0.00,Wunderground v.1.15,2013-06-27 04:30:00,
2013-06-27 00:40:00,67.1,66.5,29.84,ESE,113,0.0,6.0,98,0.00,,,0.00,Wunderground v.1.15,2013-06-27 04:40:00,
2013-06-27 00:50:00,67.1,66.5,29.84,ESE,113,0.0,6.0,98,0.00,,,0.00,Wunderground v.1.15,2013-06-27 04:50:00,
2013-06-27 01:00:00,67.1,66.5,29.83,ESE,113,0.0,6.0,98,0.00,,,0.00,Wunderground v.1.15,2013-06-27 05:00:00,
2013-06-27 01:10:00,67.0,66.4,29.83,ESE,113,0.0,6.0,98,0.00,,,0.00,Wunderground v.1.15,2013-06-27 05:10:00,
2013-06-27 01:20:00,66.9,66.3,29.82,ESE,113,0.0,6.0,98,0.00,,,0.00,Wunderground v.1.15,2013-06-27 05:20:00,
2013-06-27 01:30:00,66.9,66.3,29.82,ESE,113,0.0,6.0,98,0.00,,,0.00,Wunderground v.1.15,2013-06-27 05:30:00,
2013-06-27 01:40:00,66.8,66.2,29.82,ESE,113,0.0,6.0,98,0.00,,,0.00,Wunderground v.1.15,2013-06-27 05:40:00,
2013-06-27 01:50:00,66.7,66.1,29.82,ESE,113,0.0,6.0,98,0.00,,,0.00,Wunderground v.1.15,2013-06-27 05:50:00,
2013-06-27 02:00:00,66.8,66.2,29.82,ESE,113,0.0,6.0,98,0.00,,,0.00,Wunderground v.1.15,2013-06-27 06:00:00,
2013-06-27 02:10:00,66.7,66.1,29.82,ESE,113,0.0,6.0,98,0.00,,,0.00,Wunderground v.1.15,2013-06-27 06:10:00,
2013-06-27 02:20:00,66.8,66.2,29.82,East,96,0.0,6.0,98,0.00,,,0.00,Wunderground v.1.15,2013-06-27 06:20:00,
2013-06-27 02:30:00,66.7,66.1,29.82,East,96,0.0,6.0,98,0.00,,,0.00,Wunderground v.1.15,2013-06-27 06:30:00,
2013-06-27 02:40:00,66.7,66.1,29.81,ESE,121,0.0,6.0,98,0.00,,,0.00,Wunderground v.1.15,2013-06-27 06:40:00,
2013-06-27 02:50:00,66.7,66.1,29.81,SE,125,0.0,6.0,98,0.00,,,0.00,Wunderground v.1.15,2013-06-27 06:50:00,
2013-06-27 03:00:00,66.7,66.1,29.81,ESE,108,0.0,6.0,98,0.00,,,0.00,Wunderground v.1.15,2013-06-27 07:00:00,
2013-06-27 03:10:00,66.5,65.9,29.81,ESE,108,0.0,6.0,98,0.00,,,0.00,Wunderground v.1.15,2013-06-27 07:10:00,
2013-06-27 03:20:00,66.2,65.6,29.81,ESE,108,0.0,6.0,98,0.00,,,0.00,Wunderground v.1.15,2013-06-27 07:20:00,
2013-06-27 03:30:00,66.0,65.4,29.81,ESE,108,0.0,6.0,98,0.00,,,0.00,Wunderground v.1.15,2013-06-27 07:30:00,
2013-06-27 03:40:00,66.0,65.4,29.81,ESE,108,0.0,6.0,98,0.00,,,0.00,Wunderground v.1.15,2013-06-27 07:40:00,
2013-06-27 03:50:00,65.7,65.1,29.82,NE,46,0.0,6.0,98,0.00,,,0.00,Wunderground v.1.15,2013-06-27 07:50:00,
2013-06-27 04:00:00,64.6,64.0,29.81,NE,41,1.0,6.0,98,0.00,,,0.00,Wunderground v.1.15,2013-06-27 08:00:00,
2013-06-27 04:10:00,64.2,63.6,29.81,NE,39,1.0,6.0,98,0.00,,,0.00,Wunderground v.1.15,2013-06-27 08:10:00,
2013-06-27 04:20:00,64.2,63.6,29.82,NE,44,2.0,2.0,98,0.00,,,0.00,Wunderground v.1.15,2013-06-27 08:20:00,
2013-06-27 04:30:00,64.0,63.4,29.82,NE,50,2.0,6.0,98,0.00,,,0.00,Wunderground v.1.15,2013-06-27 08:30:00,
2013-06-27 04:40:00,63.9,63.3,29.82,NE,41,2.0,6.0,98,0.00,,,0.00,Wunderground v.1.15,2013-06-27 08:40:00,
2013-06-27 04:50:00,63.7,63.1,29.82,NE,50,2.0,2.0,98,0.00,,,0.00,Wunderground v.1.15,2013-06-27 08:50:00,
2013-06-27 05:00:00,63.7,63.1,29.83,NE,53,2.0,6.0,98,0.00,,,0.00,Wunderground v.1.15,2013-06-27 09:00:00,
2013-06-27 05:10:00,63.5,62.9,29.83,NE,56,2.0,6.0,98,0.00,,,0.00,Wunderground v.1.15,2013-06-27 09:10:00,
2013-06-27 05:20:00,63.4,62.8,29.83,NE,39,2.0,6.0,98,0.00,,,0.00,Wunderground v.1.15,2013-06-27 09:20:00,
2013-06-27 05:30:00,63.4,62.8,29.83,ENE,65,1.0,6.0,98,0.00,,,0.00,Wunderground v.1.15,2013-06-27 09:30:00,
2013-06-27 05:40:00,63.4,62.8,29.83,ENE,58,1.0,6.0,98,0.00,,,0.00,Wunderground v.1.15,2013-06-27 09:40:00,
2013-06-27 05:50:00,63.5,63.2,29.83,ENE,61,1.0,6.0,99,0.00,,,0.00,Wunderground v.1.15,2013-06-27 09:50:00,
2013-06-27 06:00:00,63.5,63.2,29.83,ENE,61,1.0,6.0,99,0.00,,,0.00,Wunderground v.1.15,2013-06-27 10:00:00,
2013-06-27 06:10:00,63.4,63.1,29.83,ENE,67,1.0,6.0,99,0.00,,,0.00,Wunderground v.1.15,2013-06-27 10:10:00,
2013-06-27 06:20:00,63.5,63.2,29.83,ENE,58,1.0,6.0,99,0.00,,,0.00,Wunderground v.1.15,2013-06-27 10:20:00,
2013-06-27 06:30:00,63.5,63.2,29.83,East,82,2.0,2.0,99,0.00,,,0.00,Wunderground v.1.15,2013-06-27 10:30:00,
2013-06-27 06:40:00,63.5,63.2,29.83,NE,55,2.0,6.0,99,0.00,,,0.00,Wunderground v.1.15,2013-06-27 10:40:00,
2013-06-27 06:50:00,63.5,63.2,29.84,ENE,63,1.0,6.0,99,0.00,,,0.00,Wunderground v.1.15,2013-06-27 10:50:00,
2013-06-27 07:00:00,63.5,63.2,29.84,East,92,2.0,2.0,99,0.00,,,0.00,Wunderground v.1.15,2013-06-27 11:00:00,
2013-06-27 07:10:00,63.6,63.3,29.85,East,81,1.0,6.0,99,0.00,,,0.00,Wunderground v.1.15,2013-06-27 11:10:00,
2013-06-27 07:20:00,63.6,63.3,29.86,ENE,65,1.0,6.0,99,0.00,,,0.00,Wunderground v.1.15,2013-06-27 11:20:00,
2013-06-27 07:30:00,63.5,63.2,29.86,ENE,71,1.0,6.0,99,0.00,,,0.00,Wunderground v.1.15,2013-06-27 11:30:00,
2013-06-27 07:40:00,63.5,63.2,29.86,ESE,103,1.0,1.0,99,0.00,,,0.00,Wunderground v.1.15,2013-06-27 11:40:00,
2013-06-27 07:50:00,63.5,63.2,29.86,ENE,77,1.0,1.0,99,0.00,,,0.00,Wunderground v.1.15,2013-06-27 11:50:00,
2013-06-27 08:00:00,63.6,63.3,29.86,ENE,58,1.0,6.0,99,0.00,,,0.00,Wunderground v.1.15,2013-06-27 12:00:00,
2013-06-27 08:10:00,63.4,63.1,29.86,ENE,63,2.0,2.0,99,0.00,,,0.00,Wunderground v.1.15,2013-06-27 12:10:00,
2013-06-27 08:20:00,63.4,63.1,29.86,ENE,60,2.0,6.0,99,0.00,,,0.00,Wunderground v.1.15,2013-06-27 12:20:00,
2013-06-27 08:30:00,63.4,63.1,29.85,NE,50,2.0,6.0,99,0.00,,,0.00,Wunderground v.1.15,2013-06-27 12:30:00,
2013-06-27 08:40:00,63.5,63.2,29.86,ENE,66,2.0,6.0,99,0.00,,,0.00,Wunderground v.1.15,2013-06-27 12:40:00,
2013-06-27 08:50:00,63.6,63.3,29.85,ENE,61,2.0,6.0,99,0.00,,,0.00,Wunderground v.1.15,2013-06-27 12:50:00,
2013-06-27 09:00:00,63.9,63.6,29.85,ENE,61,2.0,6.0,99,0.00,,,0.00,Wunderground v.1.15,2013-06-27 13:00:00,
2013-06-27 09:10:00,63.8,63.5,29.85,ENE,67,2.0,6.0,99,0.00,,,0.00,Wunderground v.1.15,2013-06-27 13:10:00,
2013-06-27 09:20:00,63.8,63.5,29.85,ENE,67,2.0,2.0,99,0.00,,,0.00,Wunderground v.1.15,2013-06-27 13:20:00,
2013-06-27 09:30:00,63.7,63.4,29.84,NE,56,2.0,6.0,99,0.00,,,0.00,Wunderground v.1.15,2013-06-27 13:30:00,
2013-06-27 09:40:00,64.0,63.7,29.85,ENE,58,2.0,2.0,99,0.00,,,0.00,Wunderground v.1.15,2013-06-27 13:40:00,
2013-06-27 09:50:00,64.2,63.9,29.85,ENE,65,2.0,2.0,99,0.00,,,0.00,Wunderground v.1.15,2013-06-27 13:50:00,
2013-06-27 10:00:00,64.4,64.1,29.85,ENE,69,2.0,2.0,99,0.00,,,0.00,Wunderground v.1.15,2013-06-27 14:00:00,
2013-06-27 10:10:00,64.8,64.5,29.84,ENE,69,2.0,6.0,99,0.00,,,0.00,Wunderground v.1.15,2013-06-27 14:10:00,
2013-06-27 10:20:00,65.1,64.8,29.84,East,86,1.0,6.0,99,0.00,,,0.00,Wunderground v.1.15,2013-06-27 14:20:00,
2013-06-27 10:30:00,64.9,64.3,29.84,ENE,73,2.0,6.0,98,0.00,,,0.00,Wunderground v.1.15,2013-06-27 14:30:00,
2013-06-27 10:40:00,65.0,64.4,29.84,ENE,67,2.0,2.0,98,0.00,,,0.00,Wunderground v.1.15,2013-06-27 14:40:00,
2013-06-27 10:50:00,65.1,64.5,29.84,ENE,64,2.0,6.0,98,0.00,,,0.00,Wunderground v.1.15,2013-06-27 14:50:00,
2013-06-27 11:00:00,65.8,65.2,29.83,NE,53,2.0,6.0,98,0.00,,,0.00,Wunderground v.1.15,2013-06-27 15:00:00,
2013-06-27 11:10:00,66.6,65.7,29.83,NE,41,3.0,6.0,97,0.00,,,0.00,Wunderground v.1.15,2013-06-27 15:10:00,
2013-06-27 11:20:00,67.0,65.5,29.83,East,86,3.0,3.0,95,0.00,,,0.00,Wunderground v.1.15,2013-06-27 15:20:00,
2013-06-27 11:30:00,68.2,66.4,29.82,NNE,18,3.0,6.0,94,0.00,,,0.00,Wunderground v.1.15,2013-06-27 15:30:00,
2013-06-27 11:40:00,69.2,66.5,29.82,ENE,68,2.0,6.0,91,0.00,,,0.00,Wunderground v.1.15,2013-06-27 15:40:00,
2013-06-27 11:50:00,69.3,66.2,29.83,ENE,71,2.0,6.0,90,0.00,,,0.00,Wunderground v.1.15,2013-06-27 15:50:00,
2013-06-27 12:00:00,69.7,67.0,29.82,East,89,2.0,6.0,91,0.00,,,0.00,Wunderground v.1.15,2013-06-27 16:00:00,
2013-06-27 12:10:00,68.1,65.1,29.83,East,79,3.0,6.0,90,0.00,,,0.00,Wunderground v.1.15,2013-06-27 16:10:00,
2013-06-27 12:20:00,66.6,64.5,29.83,SE,135,3.0,6.0,93,0.00,,,0.00,Wunderground v.1.15,2013-06-27 16:20:00,
2013-06-27 12:30:00,66.1,64.6,29.82,East,99,3.0,3.0,95,0.00,,,0.00,Wunderground v.1.15,2013-06-27 16:30:00,
2013-06-27 12:40:00,66.2,64.4,29.83,SE,139,3.0,3.0,94,0.00,,,0.00,Wunderground v.1.15,2013-06-27 16:40:00,
2013-06-27 12:50:00,65.9,64.1,29.83,ESE,110,3.0,3.0,94,0.00,,,0.00,Wunderground v.1.15,2013-06-27 16:50:00,
2013-06-27 13:00:00,65.1,63.6,29.83,ESE,108,3.0,3.0,95,0.00,,,0.00,Wunderground v.1.15,2013-06-27 17:00:00,
2013-06-27 13:10:00,65.2,63.7,29.83,ESE,117,3.0,6.0,95,0.00,,,0.00,Wunderground v.1.15,2013-06-27 17:10:00,
2013-06-27 13:20:00,65.8,64.6,29.82,East,82,2.0,6.0,96,0.00,,,0.00,Wunderground v.1.15,2013-06-27 17:20:00,
2013-06-27 13:30:00,66.7,65.2,29.82,East,79,2.0,2.0,95,0.00,,,0.00,Wunderground v.1.15,2013-06-27 17:30:00,
2013-06-27 13:40:00,67.6,66.1,29.81,East,99,1.0,1.0,95,0.00,,,0.00,Wunderground v.1.15,2013-06-27 17:40:00,
2013-06-27 13:50:00,68.5,66.7,29.81,East,96,1.0,6.0,94,0.00,,,0.00,Wunderground v.1.15,2013-06-27 17:50:00,
2013-06-27 14:00:00,68.9,66.8,29.80,East,99,1.0,6.0,93,0.00,,,0.00,Wunderground v.1.15,2013-06-27 18:00:00,
2013-06-27 14:10:00,68.1,66.0,29.81,East,81,2.0,6.0,93,0.00,,,0.00,Wunderground v.1.15,2013-06-27 18:10:00,
2013-06-27 14:20:00,67.6,66.1,29.81,NE,53,1.0,1.0,95,0.00,,,0.00,Wunderground v.1.15,2013-06-27 18:20:00,
2013-06-27 14:30:00,68.0,66.8,29.81,ENE,74,1.0,6.0,96,0.00,,,0.00,Wunderground v.1.15,2013-06-27 18:30:00,
2013-06-27 14:40:00,66.2,64.7,29.81,ESE,117,3.0,3.0,95,0.00,,,0.00,Wunderground v.1.15,2013-06-27 18:40:00,
2013-06-27 14:50:00,66.5,65.3,29.81,ESE,113,0.0,6.0,96,0.00,,,0.00,Wunderground v.1.15,2013-06-27 18:50:00,
2013-06-27 15:00:00,66.7,65.5,29.80,SSE,165,1.0,6.0,96,0.00,,,0.00,Wunderground v.1.15,2013-06-27 19:00:00,
2013-06-27 15:10:00,65.9,64.1,29.81,SE,139,3.0,6.0,94,0.00,,,0.00,Wunderground v.1.15,2013-06-27 19:10:00,
2013-06-27 15:20:00,64.7,63.8,29.80,East,94,1.0,1.0,97,0.00,,,0.00,Wunderground v.1.15,2013-06-27 19:20:00,
2013-06-27 15:30:00,65.2,64.3,29.80,ESE,118,0.0,6.0,97,0.00,,,0.00,Wunderground v.1.15,2013-06-27 19:30:00,
2013-06-27 15:40:00,65.5,64.6,29.80,ESE,108,1.0,1.0,97,0.00,,,0.00,Wunderground v.1.15,2013-06-27 19:40:00,
2013-06-27 15:50:00,66.2,65.3,29.80,SE,125,1.0,6.0,97,0.00,,,0.00,Wunderground v.1.15,2013-06-27 19:50:00,
2013-06-27 16:00:00,67.0,66.1,29.80,ESE,109,1.0,6.0,97,0.00,,,0.00,Wunderground v.1.15,2013-06-27 20:00:00,
2013-06-27 16:10:00,67.5,66.3,29.80,ESE,113,1.0,1.0,96,0.00,,,0.00,Wunderground v.1.15,2013-06-27 20:10:00,
2013-06-27 16:20:00,67.4,65.9,29.79,ESE,110,2.0,6.0,95,0.00,,,0.00,Wunderground v.1.15,2013-06-27 20:20:00,
2013-06-27 16:30:00,67.5,66.0,29.80,East,101,1.0,6.0,95,0.00,,,0.00,Wunderground v.1.15,2013-06-27 20:30:00,
2013-06-27 16:40:00,67.2,65.4,29.79,ESE,108,1.0,6.0,94,0.00,,,0.00,Wunderground v.1.15,2013-06-27 20:40:00,
2013-06-27 16:50:00,66.6,65.1,29.79,ESE,113,1.0,1.0,95,0.00,,,0.00,Wunderground v.1.15,2013-06-27 20:50:00,
2013-06-27 17:00:00,66.2,64.7,29.79,ESE,114,1.0,6.0,95,0.00,,,0.00,Wunderground v.1.15,2013-06-27 21:00:00,
2013-06-27 17:30:00,66.0,65.1,29.79,SE,125,1.0,1.0,97,0.00,,,0.00,Wunderground v.1.15,2013-06-27 21:30:00,
2013-06-27 17:50:00,65.5,64.6,29.78,SE,134,1.0,1.0,97,0.00,,,0.00,Wunderground v.1.15,2013-06-27 21:50:00,
2013-06-27 18:00:00,65.4,64.5,29.78,SE,125,0.0,6.0,97,0.00,,,0.00,Wunderground v.1.15,2013-06-27 22:00:00,
2013-06-27 18:10:00,65.5,64.9,29.78,SE,129,1.0,6.0,98,0.00,,,0.00,Wunderground v.1.15,2013-06-27 22:10:00,
2013-06-27 18:20:00,65.6,65.0,29.78,ESE,120,1.0,1.0,98,0.00,,,0.00,Wunderground v.1.15,2013-06-27 22:20:00,
2013-06-27 18:30:00,65.8,65.2,29.78,SE,125,1.0,6.0,98,0.00,,,0.00,Wunderground v.1.15,2013-06-27 22:30:00,
2013-06-27 18:50:00,65.4,64.5,29.78,SE,131,1.0,1.0,97,0.00,,,0.00,Wunderground v.1.15,2013-06-27 22:50:00,
2013-06-27 19:00:00,65.3,64.4,29.78,ESE,108,1.0,1.0,97,0.00,,,0.00,Wunderground v.1.15,2013-06-27 23:00:00,
2013-06-27 19:10:00,64.9,64.0,29.79,ESE,113,1.0,6.0,97,0.00,,,0.00,Wunderground v.1.15,2013-06-27 23:10:00,
2013-06-27 19:20:00,64.8,64.2,29.79,SE,126,0.0,6.0,98,0.00,,,0.00,Wunderground v.1.15,2013-06-27 23:20:00,
2013-06-27 19:30:00,64.8,64.2,29.79,ESE,108,1.0,6.0,98,0.00,,,0.00,Wunderground v.1.15,2013-06-27 23:30:00,
2013-06-27 19:40:00,64.5,63.9,29.78,SE,125,1.0,6.0,98,0.00,,,0.00,Wunderground v.1.15,2013-06-27 23:40:00,
2013-06-27 19:50:00,64.3,63.7,29.79,SE,128,1.0,6.0,98,0.00,,,0.00,Wunderground v.1.15,2013-06-27 23:50:00,
2013-06-27 20:00:00,64.1,63.5,29.78,SE,132,1.0,1.0,98,0.00,,,0.00,Wunderground v.1.15,2013-06-28 00:00:00,
2013-06-27 20:10:00,64.7,64.1,29.78,SE,128,0.0,6.0,98,0.00,,,0.00,Wunderground v.1.15,2013-06-28 00:10:00,
2013-06-27 20:20:00,65.3,65.0,29.78,SSE,162,0.0,6.0,99,0.00,,,0.00,Wunderground v.1.15,2013-06-28 00:20:00,
2013-06-27 20:30:00,65.6,65.0,29.79,SSE,165,0.0,6.0,98,0.00,,,0.00,Wunderground v.1.15,2013-06-28 00:30:00,
2013-06-27 20:40:00,66.2,65.9,29.78,WSW,246,1.0,6.0,99,0.00,,,0.00,Wunderground v.1.15,2013-06-28 00:40:00,
2013-06-27 20:50:00,66.5,66.2,29.78,SSW,197,2.0,6.0,99,0.00,,,0.00,Wunderground v.1.15,2013-06-28 00:50:00,
2013-06-27 21:00:00,66.8,66.5,29.78,East,92,2.0,6.0,99,0.00,,,0.00,Wunderground v.1.15,2013-06-28 01:00:00,
2013-06-27 21:10:00,66.9,66.6,29.78,SSE,165,1.0,6.0,99,0.00,,,0.00,Wunderground v.1.15,2013-06-28 01:10:00,
2013-06-27 21:20:00,66.8,66.5,29.79,SSW,203,2.0,6.0,99,0.00,,,0.00,Wunderground v.1.15,2013-06-28 01:20:00,
2013-06-27 21:30:00,66.2,65.9,29.79,SW,226,3.0,6.0,99,0.00,,,0.00,Wunderground v.1.15,2013-06-28 01:30:00,
2013-06-27 21:40:00,66.7,66.4,29.80,WSW,257,3.0,3.0,99,0.00,,,0.00,Wunderground v.1.15,2013-06-28 01:40:00,
2013-06-27 21:50:00,66.7,66.4,29.80,SW,218,3.0,3.0,99,0.00,,,0.00,Wunderground v.1.15,2013-06-28 01:50:00,
2013-06-27 22:20:00,66.7,66.4,29.79,SSE,165,3.0,3.0,99,0.00,,,0.00,Wunderground v.1.15,2013-06-28 02:20:00,
2013-06-27 22:30:00,66.5,66.2,29.79,South,180,3.0,6.0,99,0.00,,,0.00,Wunderground v.1.15,2013-06-28 02:30:00,
2013-06-27 22:40:00,66.4,66.1,29.78,SSW,198,3.0,6.0,99,0.00,,,0.00,Wunderground v.1.15,2013-06-28 02:40:00,
2013-06-27 22:50:00,66.6,66.3,29.78,SSW,200,3.0,3.0,99,0.00,,,0.00,Wunderground v.1.15,2013-06-28 02:50:00,
2013-06-27 23:10:00,66.9,66.6,29.78,SSW,211,2.0,2.0,99,0.00,,,0.00,Wunderground v.1.15,2013-06-28 03:10:00,
2013-06-27 23:20:00,67.0,66.7,29.78,SW,226,2.0,6.0,99,0.00,,,0.00,Wunderground v.1.15,2013-06-28 03:20:00,
2013-06-27 23:30:00,67.1,66.8,29.78,SSW,210,2.0,2.0,99,0.00,,,0.00,Wunderground v.1.15,2013-06-28 03:30:00,
2013-06-27 23:40:00,67.3,67.0,29.78,SW,218,2.0,6.0,99,0.00,,,0.00,Wunderground v.1.15,2013-06-28 03:40:00,
2013-06-27 23:50:00,67.5,67.2,29.77,SW,218,1.0,6.0,99,0.00,,,0.00,Wunderground v.1.15,2013-06-28 03:50:00,